When you browse on this site, cookies collect data to enhance your experience and personalize the content and advertising you see.
Visit our Privacy Policy to learn more. By continuing to use the site, you agree to this use of cookies and data.
  • In Portugal
  • List of Countries
  • For 7 days
  • Water Temperature
  • Satellite Maps
  • Weather Map
  • Weather Widgets
  • user-avatar
    Login

    Hourly Weather Rozyniec

    Today, 18 February, Monday

    Time Temperature Precipitation Wind Pressure Humidity
    00:00 +6°C° 0 mm 1 mps 750 mmHg 62%
    01:00 +6°C° 0 mm 1 mps 749 mmHg 61%
    02:00 +5°C° 0 mm 1 mps 749 mmHg 60%
    03:00 +5°C° 0 mm 1 mps 749 mmHg 60%
    04:00 +5°C° 0 mm 1 mps 749 mmHg 60%
    05:00 +5°C° 0 mm 1 mps 749 mmHg 61%
    06:00 +5°C° 0 mm 1 mps 749 mmHg 62%
    07:00 +4°C° 0 mm 1 mps 748 mmHg 62%
    08:00 +6°C° 0 mm 1 mps 748 mmHg 57%
    09:00 +8°C° 0 mm 1 mps 748 mmHg 53%
    10:00 +9°C° 0 mm 2 mps 748 mmHg 48%
    11:00 +10°C° 0 mm 2 mps 748 mmHg 45%
    12:00 +13°C° 0 mm 1 mps 748 mmHg 42%
    13:00 +15°C° 0 mm 1 mps 748 mmHg 38%
    14:00 +14°C° 0 mm 1 mps 747 mmHg 41%
    15:00 +14°C° 0 mm 1 mps 747 mmHg 45%
    16:00 +13°C° 0 mm 1 mps 747 mmHg 49%
    17:00 +11°C° 0 mm 1 mps 746 mmHg 52%
    18:00 +9°C° 0 mm 2 mps 746 mmHg 55%
    19:00 +7°C° 0 mm 2 mps 746 mmHg 58%
    20:00 +6°C° 0 mm 2 mps 746 mmHg 58%
    21:00 +6°C° 0 mm 2 mps 746 mmHg 57%
    22:00 +5°C° 0 mm 2 mps 746 mmHg 57%
    23:00 +5°C° 0 mm 2 mps 746 mmHg 59%

    Tomorrow, 19 February, Tuesday

    Time Temperature Precipitation Wind Pressure Humidity
    00:00 +5°C° 0 mm 2 mps 745 mmHg 61%
    01:00 +4°C° 0 mm 2 mps 745 mmHg 62%
    02:00 +4°C° 0 mm 2 mps 745 mmHg 63%
    03:00 +3°C° 0 mm 3 mps 745 mmHg 63%
    04:00 +3°C° 0 mm 3 mps 745 mmHg 63%
    05:00 +3°C° 0 mm 3 mps 745 mmHg 64%
    06:00 +3°C° 0 mm 3 mps 744 mmHg 65%
    07:00 +2°C° 0 mm 3 mps 744 mmHg 65%
    08:00 +4°C° 0 mm 4 mps 744 mmHg 61%
    09:00 +6°C° 0 mm 4 mps 744 mmHg 57%
    10:00 +7°C° 0 mm 5 mps 744 mmHg 53%
    11:00 +8°C° 0 mm 5 mps 744 mmHg 53%
    12:00 +9°C° 0 mm 6 mps 744 mmHg 54%
    13:00 +10°C° 0 mm 6 mps 744 mmHg 54%
    14:00 +9°C° 0 mm 6 mps 744 mmHg 59%
    15:00 +9°C° 0 mm 5 mps 744 mmHg 65%
    16:00 +8°C° 0 mm 5 mps 744 mmHg 70%
    17:00 +8°C° 0 mm 4 mps 744 mmHg 74%
    18:00 +7°C° 0 mm 4 mps 744 mmHg 79%
    19:00 +6°C° 0 mm 4 mps 744 mmHg 83%
    20:00 +6°C° 0 mm 4 mps 745 mmHg 84%
    21:00 +5°C° 0 mm 4 mps 745 mmHg 85%
    22:00 +3°C° 0 mm 5 mps 745 mmHg 86%
    23:00 +3°C° 0 mm 5 mps 745 mmHg 85%

    Day after tomorrow, 20 February, Wednesday

    Time Temperature Precipitation Wind Pressure Humidity
    00:00 +3°C° 0 mm 5 mps 745 mmHg 83%
    01:00 +3°C° 0 mm 5 mps 746 mmHg 81%
    02:00 +2°C° 0 mm 5 mps 746 mmHg 83%
    03:00 +2°C° 0 mm 5 mps 746 mmHg 84%
    04:00 +2°C° 0 mm 5 mps 746 mmHg 86%
    05:00 +2°C° 0 mm 5 mps 746 mmHg 85%
    06:00 +2°C° 0 mm 5 mps 746 mmHg 84%
    07:00 +2°C° 0 mm 5 mps 747 mmHg 84%
    08:00 +3°C° 0 mm 5 mps 747 mmHg 81%
    09:00 +3°C° 0 mm 5 mps 748 mmHg 78%
    10:00 +4°C° 0 mm 6 mps 748 mmHg 76%
    11:00 +5°C° 0 mm 6 mps 748 mmHg 71%
    12:00 +5°C° 0 mm 6 mps 748 mmHg 66%
    13:00 +7°C° 0 mm 6 mps 748 mmHg 62%
    14:00 +7°C° 0 mm 5 mps 748 mmHg 63%
    15:00 +7°C° 0 mm 5 mps 748 mmHg 65%
    16:00 +7°C° 0 mm 4 mps 748 mmHg 66%
    17:00 +6°C° 0 mm 4 mps 749 mmHg 69%
    18:00 +7°C° 0 mm 3 mps 749 mmHg 73%
    19:00 +5°C° 0 mm 3 mps 749 mmHg 76%
    20:00 +5°C° 0 mm 3 mps 749 mmHg 75%
    21:00 +4°C° 0 mm 3 mps 749 mmHg 75%
    22:00 +4°C° 0 mm 3 mps 750 mmHg 75%
    23:00 +4°C° 0 mm 4 mps 750 mmHg 76%

    21 February, Thursday

    Time Temperature Precipitation Wind Pressure Humidity
    00:00 +4°C° 0 mm 4 mps 750 mmHg 76%
    01:00 +4°C° 0 mm 4 mps 750 mmHg 77%
    02:00 +4°C° 0.1 mm 4 mps 749 mmHg 79%
    03:00 +4°C° 0.1 mm 4 mps 749 mmHg 81%
    04:00 +5°C° 0.1 mm 5 mps 749 mmHg 83%
    05:00 +5°C° 0.3 mm 5 mps 749 mmHg 83%
    06:00 +5°C° 0.3 mm 5 mps 749 mmHg 84%
    07:00 +4°C° 0.3 mm 6 mps 749 mmHg 84%
    08:00 +4°C° 0.4 mm 6 mps 749 mmHg 83%
    09:00 +4°C° 0.4 mm 6 mps 749 mmHg 83%
    10:00 +5°C° 0.4 mm 7 mps 749 mmHg 82%
    11:00 +5°C° 0.4 mm 7 mps 749 mmHg 82%
    12:00 +5°C° 0.4 mm 7 mps 749 mmHg 81%
    13:00 +5°C° 0.4 mm 7 mps 749 mmHg 81%
    14:00 +5°C° 0.6 mm 6 mps 749 mmHg 83%
    15:00 +5°C° 0.6 mm 6 mps 749 mmHg 85%
    16:00 +5°C° 0.6 mm 6 mps 749 mmHg 87%
    17:00 +5°C° 0.3 mm 6 mps 750 mmHg 89%
    18:00 +6°C° 0.3 mm 5 mps 750 mmHg 90%
    19:00 +6°C° 0.3 mm 5 mps 751 mmHg 91%
    20:00 +6°C° 0.1 mm 5 mps 751 mmHg 92%
    21:00 +6°C° 0.1 mm 5 mps 751 mmHg 92%
    22:00 +6°C° 0.1 mm 5 mps 752 mmHg 92%
    23:00 +6°C° 0.2 mm 4 mps 752 mmHg 92%

    22 February, Friday

    Time Temperature Precipitation Wind Pressure Humidity
    00:00 +6°C° 0.2 mm 4 mps 753 mmHg 92%
    01:00 +6°C° 0.2 mm 4 mps 753 mmHg 91%
    02:00 +7°C° 0.1 mm 3 mps 754 mmHg 93%
    03:00 +5°C° 0.1 mm 3 mps 754 mmHg 94%
    04:00 +5°C° 0.1 mm 3 mps 754 mmHg 95%
    05:00 +5°C° 0 mm 3 mps 755 mmHg 94%
    06:00 +4°C° 0 mm 3 mps 756 mmHg 94%
    07:00 +4°C° 0 mm 3 mps 756 mmHg 93%
    08:00 +4°C° 0 mm 3 mps 757 mmHg 88%
    09:00 +3°C° 0 mm 3 mps 758 mmHg 82%
    10:00 +3°C° 0 mm 3 mps 759 mmHg 77%
    11:00 +4°C° 0 mm 3 mps 759 mmHg 70%
    12:00 +5°C° 0 mm 2 mps 759 mmHg 64%
    13:00 +6°C° 0 mm 2 mps 760 mmHg 57%
    14:00 +6°C° 0 mm 2 mps 760 mmHg 56%
    15:00 +5°C° 0 mm 2 mps 761 mmHg 55%
    16:00 +4°C° 0 mm 3 mps 761 mmHg 54%
    17:00 +4°C° 0 mm 2 mps 761 mmHg 58%
    18:00 +3°C° 0 mm 2 mps 762 mmHg 62%
    19:00 +2°C° 0 mm 2 mps 762 mmHg 66%
    20:00 +1°C° 0 mm 2 mps 762 mmHg 67%
    21:00 +1°C° 0 mm 2 mps 763 mmHg 68%
    22:00 -1°C° 0 mm 2 mps 763 mmHg 69%
    23:00 -1°C° 0 mm 2 mps 763 mmHg 69%

    23 February, Saturday

    Time Temperature Precipitation Wind Pressure Humidity
    00:00 -1°C° 0 mm 2 mps 763 mmHg 69%
    01:00 -2°C° 0 mm 2 mps 763 mmHg 68%
    02:00 -2°C° 0 mm 2 mps 763 mmHg 67%
    03:00 +1°C° 0 mm 1 mps 763 mmHg 66%
    04:00 +1°C° 0 mm 1 mps 763 mmHg 65%
    05:00 +1°C° 0 mm 1 mps 762 mmHg 65%
    06:00 +1°C° 0 mm 1 mps 762 mmHg 65%
    07:00 +1°C° 0 mm 1 mps 762 mmHg 65%
    08:00 +3°C° 0 mm 1 mps 762 mmHg 62%
    09:00 +4°C° 0 mm 1 mps 762 mmHg 59%
    10:00 +6°C° 0 mm 1 mps 762 mmHg 56%
    11:00 +6°C° 0 mm 2 mps 762 mmHg 54%
    12:00 +7°C° 0 mm 2 mps 761 mmHg 53%
    13:00 +8°C° 0 mm 3 mps 761 mmHg 51%
    14:00 +8°C° 0 mm 3 mps 761 mmHg 54%
    15:00 +8°C° 0 mm 3 mps 760 mmHg 57%
    16:00 +8°C° 0 mm 2 mps 760 mmHg 59%
    17:00 +7°C° 0 mm 2 mps 760 mmHg 66%
    18:00 +6°C° 0 mm 2 mps 760 mmHg 72%
    19:00 +4°C° 0 mm 2 mps 759 mmHg 79%
    20:00 +4°C° 0 mm 2 mps 759 mmHg 81%
    21:00 +4°C° 0 mm 2 mps 759 mmHg 84%
    22:00 +4°C° 0 mm 2 mps 759 mmHg 87%
    23:00 +4°C° 0 mm 2 mps 759 mmHg 89%
    Show more